Location: *
(55.6049°S, 142.1985°W)
Time: 10:05:02
(UTC+00:00)

CZ-4B R/B - Pass Details

Date: 12 May 2021
Orbit: 385 x 454 km, 97.6° (Epoch: 14 June)

Event Time Altitude Azimuth Distance (km) Brightness Sun altitude
Rises 16:00:48 0° 163° (SSE) 2,407 5.1 -10.1°
Reaches altitude 10° 16:02:50 10° 158° (SSE) 1,546 4.2 -9.9°
Maximum altitude 16:06:06 58° 78° (ENE) 521 2.1 -9.4°
Drops below altitude 10° 16:09:24 10° 357° (N) 1,562 4.4 -9.0°
Sets 16:11:27 0° 353° (N) 2,436 5.3 -8.7°
